星链-36846(STARLINK-36846)

导读

STARLINK-36846是美国于2026年2月21日发射的星链系列卫星,归属SpaceX星链互联网星座项目。星链计划旨在搭建全球覆盖的低轨卫星互联网系统,为偏远地区、海上等场景提供高速网络服务,该卫星入轨后将进一步拓展星链星座的服务覆盖范围与网络容量。

基本信息
目录编号:
67894
目录名称:
STARLINK-36846
国际标识:
2026-035R
轨道中心:
EARTH
卫星名称:
星链-36846
卫星全名:
星链-36846(STARLINK-36846)
卫星状态:
在轨 (已飞行196 天)
发射日期:
2026-02-21 UTC
国别 :
美国 (US)
星等 :
--
轨道信息
数据来源 国际轨道数据
星历时间: 2026-09-05T14:10:31+0800
7小时前
查看轨道信息
半长轴: 6843.66km
偏心率: 0.0001239
轨道倾角: 97.283°
近地点辐角 86.847°
升交点赤经 180.270°
平近点角 273.291°
近地点: 464.675km
远地点: 466.371km
周期: 93.906分钟
每日圈数: 15.33452
详细信息
固有亮度:
5
最大亮度:
2.5
卫星平台:
Starlink V1.0
覆盖范围:
全球
运营商:
太空探索技术公司
运营商所在国:
美国
制造商(研发单位):
太空探索技术公司
制造商所在国:
美国
使用方式:
暂无
卫星简介
Starlink 计划是 SpaceX 推出的全球卫星互联网项目,通过发射低轨道卫星,为全球尤其是偏远地区提供高速、低延迟的互联网服务。自 2019 年起,Starlink 已部署数千颗卫星,旨在缩小全球数字鸿沟,推动互联网普及。该项目还为军事、航空等行业提供通信支持,带来广泛经济效益。
2D轨道图
3D轨道图
轨道高度分析图
轨道倾角分析图
轨道综合分析图
查看轨道综合分析图
交会数据列表
事件ID 空间交会对象 最接近时刻(TCA) 交会距离 交会风险概率(CRP) 交会风险指数(CRI) 操作
CDM_260906-180006-789406-829621
2026-09-06T
18:00:21+0000
0.407 km
远距离
3.153898E-4 高风险 0.85
CDM_260905-133504-316006-789424
2026-09-05T
13:35:06+0000
0.825 km
远距离
3.992325E-5 中风险 0.67
CDM_260906-162606-789406-829622
2026-09-06T
16:26:24+0000
0.987 km
远距离
2.875641E-5 中风险 0.64
CDM_260907-041106-789406-829621
2026-09-07T
04:11:04+0000
1.343 km
极远距离
9.851694E-6 低风险 0.55
CDM_260906-193406-789406-829621
2026-09-06T
19:34:19+0000
1.496 km
极远距离
6.83935E-6 低风险 0.52
CDM_260907-054506-789406-829621
2026-09-07T
05:45:01+0000
1.594 km
极远距离
5.575651E-6 低风险 0.5
CDM_260907-023706-789406-829621
2026-09-07T
02:37:07+0000
2.128 km
极远距离
2.47907E-6 低风险 0.43
CDM_260906-145206-789406-829622
2026-09-06T
14:52:27+0000
2.128 km
极远距离
2.47636E-6 低风险 0.43
CDM_260907-071806-789406-829621
2026-09-07T
07:18:58+0000
2.624 km
极远距离
1.631625E-6 低风险 0.39
CDM_260906-210806-789406-829621
2026-09-06T
21:08:16+0000
2.705 km
极远距离
1.553535E-6 低风险 0.39